Weather in Koshkeldy

Russia / Chechen Republic     43°15′10″N   46°21′19″E
temp.,
°C
wind,
m/s
gust,
m/s
humid.,
%
clouds,
%
prec.,
mm/h
press.,
hPa
HPBL,
m
24 may, tue
tue2400:00+13nw4899100 5.4 1006435
03:00+12w4897100 11.3 1007618
06:00+12w4897100 5.3 1008547
09:00+12w51096100 7.9 1009601
12:00+13wsw478898 1.1 1010577
15:00+16wsw356896 1.4 1010770
18:00+15wsw2475100 0.2 1011200
21:00+13ssw2276100 0.2 101320
25 may, wed
wed2500:00+12sw2276100 0.0 101424
03:00+12wsw2483100 0.1 1015152
06:00+11wsw3595100 2.3 1018223
09:00+10wsw4893100 6.4 1020394
12:00+11sw3690100 1.2 1021386
15:00+15wsw4567100 1.2 1020753
18:00+15wsw1172100 0.0 102033
21:00+11ssw22795 0.0 102215
26 may, thu
thu2600:00+10ssw32745 0.0 102125
03:00+9ssw32735 0.0 102227
06:00+12sw22715 0.0 102279
09:00+18wnw22575 0.0 1022820
12:00+20nne2249100 0.1 10211751
15:00+20e225220 0.2 10201153
18:00+19ese23635 0.0 1019106
21:00+14sse32735 0.0 102023
27 may, fri
fri2700:00+12ssw2276100 0.0 101920
03:00+12ssw227497 0.0 101918
06:00+14sw1270100 0.0 101963
09:00+20nnw215447 0.0 1019597
12:00+23nne224513 0.0 10191325
15:00+24nne22430 0.0 10181567
18:00+21ne23611 0.0 101894
21:00+16s22712 0.0 101917
28 may, sat
sat2800:00+15s22730 0.0 101818
03:00+13ssw11780 0.0 101811
06:00+16s00720 0.0 101866
09:00+21ene34580 0.0 1016801
12:00+26ene44460 0.0 10131342
15:00+26ene54460 0.0 10121060
18:00+22ne24660 0.0 1013189
21:00+15sw01870 0.0 101413